Lexington Weather

Lexington, Massachusetts, USA

69°F
8/17/2022 7:37pm 
  • Lexington Conditions: Overcast
  • Temperature: 69.3°F / 20.7°CColder 0.5°F than last hour.
  • Dew Point: 57.4°FDecreased 0.9°Fsince last hour.
  • Relative Humidity: 66%Decreased 1.0% since last hour.
  • Wind: Calm, 10-min avg: Calm, gust: None
  • Barometer: 29.84 in Steady
  • Visibility: 10 miles
  • Rain Today: 0.00 in
  •   

Regional Weather Roundup
for Boston, MA

        
000
ASUS41 KBOX 140410
RWRBOX

REGIONAL WEATHER ROUNDUP
NATIONAL WEATHER SERVICE BOSTON/NORTON MA
1200 AM EDT SUN AUG 14 2022

NOTE:  "FAIR" INDICATES FEW OR NO CLOUDS BELOW 12,000 FEET WITH NO 
SIGNIFICANT WEATHER AND/OR OBSTRUCTIONS TO VISIBILITY.

MAZALL-140500-
EASTERN MASSACHUSETTS
  
CITY           SKY/WX    TMP DP  RH WIND       PRES   REMARKS
BOSTON         PTCLDY    68  54  60 W5        30.06S                  
BEVERLY        CLEAR     58  56  93 CALM      30.05S                  
LAWRENCE       PTCLDY    63  56  78 S5        30.07F                  
BEDFORD        PTCLDY    60  56  86 CALM      30.05F                  
BLUE HILL      NOT AVBL                                               
NORWOOD        PTCLDY    56  53  90 CALM      30.06S                  
MARSHFIELD     CLEAR     57  55  94 CALM      30.05S                  
PLYMOUTH       CLEAR     59  56  89 CALM      30.06S                  
TAUNTON          N/A    N/A N/A N/A MISG      30.06S                  
NEW BEDFORD    CLEAR     58  57  97 CALM      30.05F                  
$$

MAZALL-140500-
CAPE COD AND THE ISLANDS
  
CITY           SKY/WX    TMP DP  RH WIND       PRES   REMARKS
FALMOUTH       CLEAR     57  57 100 CALM      30.06S                  
HYANNIS        CLEAR     62  60  93 CALM      30.04S                  
CHATHAM        CLEAR     64  61  90 W3        30.05S                  
NANTUCKET      CLOUDY    68  64  87 W5        30.05S                  
MARTHAS VNYRD  CLEAR     53  52  96 W3        30.06S                  
$$
 
MAZALL-140500-
CENTRAL AND WESTERN MASSACHUSETTS
  
CITY           SKY/WX    TMP DP  RH WIND       PRES   REMARKS
WORCESTER      PTCLDY    63  52  67 NW5       30.09S                  
FITCHBURG      CLEAR     61  52  72 CALM      30.08F                  
ORANGE         CLEAR     58  53  84 CALM      30.10S                  
SPRINGFIELD    CLEAR     54  51  92 CALM      30.06S                  
WESTFIELD      CLEAR     56  53  90 CALM      30.08S                  
NORTH ADAMS    CLEAR     54  52  93 CALM      30.11S                  
PITTSFIELD     PTCLDY    52  50  93 CALM      30.10S                  
$$
 
RIZALL-140500-
RHODE ISLAND
  
CITY           SKY/WX    TMP DP  RH WIND       PRES   REMARKS
PROVIDENCE     PTCLDY    64  57  78 W5        30.06F                  
NEWPORT        PTCLDY    60  58  92 CALM      30.06F                  
BLOCK ISLAND   CLEAR     62  55  77 CALM      30.07S                  
SMITHFIELD     MOCLDY    57  55  93 CALM      30.07F                  
WESTERLY       CLEAR     60  57  89 CALM      30.07S                  
$$
 
CTZALL-140500-
CONNECTICUT
  
CITY           SKY/WX    TMP DP  RH WIND       PRES   REMARKS
BRADLEY INTL   PTCLDY    63  54  72 CALM      30.08S                  
HARTFORD       MOCLDY    64  59  83 CALM      30.07S                  
BRIDGEPORT     CLOUDY    67  53  61 N6        30.07F                  
DANBURY        CLOUDY    63  53  70 CALM      30.10S                  
GROTON         CLEAR     64  54  69 CALM      30.06S                  
NEW HAVEN      CLEAR     63  56  78 CALM      30.08S                  
CHESTER        FAIR      63  52  67 CALM      30.09R                  
MERIDEN        CLEAR     59  53  80 CALM      30.08S                  
WILLIMANTIC    CLEAR     57  55  93 NE5       30.08S                  
OXFORD         MOCLDY    58  53  84 CALM      30.11R                  
$$

MEZ002-015-021-024-NHZ003-005-008-011-012-014-VTZ005-008-140500-
NORTHERN NEW ENGLAND
  
CITY           SKY/WX    TMP DP  RH WIND       PRES   REMARKS
PORTLAND ME    PTCLDY    62  55  77 W6        30.04F                  
BANGOR ME      CLOUDY    66  57  72 CALM      30.01F                  
CONCORD NH     CLOUDY    58  54  86 CALM      30.07S                  
MANCHESTER NH  MOCLDY    68  54  60 NW7       30.05F                  
NASHUA NH      MOCLDY    62  57  83 NW6       30.07F                  
PORTSMOUTH NH  MOCLDY    61  54  78 S3        30.04F                  
JAFFREY NH     PTCLDY    57  53  86 CALM      30.10S                  
KEENE NH       CLEAR     55  55 100 CALM        N/A                   
BURLINGTON VT  CLEAR     59  55  87 CALM      30.09R                  
MT. WASHINGTON PTCLDY    43  41  93 N3          N/A                   
$$

NYZ052-076-140500-
EASTERN NEW YORK
  
CITY           SKY/WX    TMP DP  RH WIND       PRES   REMARKS
ALBANY         PTCLDY    62  54  74 CALM      30.08S                  
NEW YORK CITY  PTCLDY    73  51  46 SW9       30.07S                  
$$
 
ANZALL-140500-
MARINE OBSERVATIONS
  
STATION/POSITION TIME  TEMP    WIND        PRES    VSBY  WAVE
                       AIR SEA DIR/SP/G                  HT/PER
                 (UTC) (F)     (DEG/KT/KT) (MB)    (MI)  (FT/S)
BOSTON BUOY      NOT AVBL
BUZZARDS BAY     NOT AVBL
NANTUCKET SOUND  NOT AVBL
MASS BAY-STELLWA NOT AVBL
ISLE OF SHOALS   NOT AVBL
S OF BLOCK IS    NOT AVBL
$$

......................KEY.........................
  SKY/WX - SKY CONDITION/PRESENT WEATHER
  TMP    - TEMPERATURE IN FAHRENHEIT
  DWPT   - DEWPOINT IN FAHRENHEIT
  RH     - RELATIVE HUMIDITY IN PERCENT
  WIND   - DIRECTION AND SPEED IN MPH
  PRES   - MEAN SEA LEVEL PRESSURE IN INCHES OF HG
  WCI    - WIND CHILL INDEX
  VSB    - VISIBILITY IN MILES
  HX     - HEAT INDEX
  TC     - TEMPERATURE IN CELSIUS
  VRB    - VARIABLE WIND DIRECTION
  N/A    - NOT AVAILABLE
  
      

Other recent Regional Weather Roundups

Wed Aug 17, 7:10pm

Wed Aug 17, 6:10pm

Wed Aug 17, 5:10pm

Wed Aug 17, 4:10pm

Wed Aug 17, 3:10pm

Wed Aug 17, 2:10pm

Wed Aug 17, 1:10pm

Wed Aug 17, 12:10pm

Wed Aug 17, 11:10am

Wed Aug 17, 10:10am

Wed Aug 17, 9:10am

Wed Aug 17, 8:10am

Wed Aug 17, 7:10am

Wed Aug 17, 6:10am

Wed Aug 17, 5:10am

Wed Aug 17, 4:10am

Wed Aug 17, 3:10am

Wed Aug 17, 2:10am

Wed Aug 17, 1:10am

Wed Aug 17, 12:10am

Tue Aug 16, 11:10pm

Tue Aug 16, 10:10pm

Tue Aug 16, 9:10pm

Tue Aug 16, 8:10pm

Tue Aug 16, 7:10pm

Tue Aug 16, 6:10pm

Tue Aug 16, 5:10pm

Tue Aug 16, 4:10pm

Tue Aug 16, 3:10pm

Tue Aug 16, 2:10pm

Tue Aug 16, 1:10pm

Tue Aug 16, 12:10pm

Tue Aug 16, 11:10am

Tue Aug 16, 10:10am

Tue Aug 16, 9:10am

Tue Aug 16, 8:10am

Tue Aug 16, 7:10am

Tue Aug 16, 6:10am

Tue Aug 16, 5:10am

Tue Aug 16, 4:10am

Tue Aug 16, 3:10am

Tue Aug 16, 2:10am

Tue Aug 16, 1:10am

Tue Aug 16, 12:10am

Mon Aug 15, 11:10pm

Mon Aug 15, 10:10pm

Mon Aug 15, 9:10pm

Mon Aug 15, 8:10pm

Mon Aug 15, 7:10pm

Mon Aug 15, 6:10pm

Mon Aug 15, 5:10pm

Mon Aug 15, 4:10pm

Mon Aug 15, 3:10pm

Mon Aug 15, 2:10pm

Mon Aug 15, 1:10pm

Mon Aug 15, 12:10pm

Mon Aug 15, 11:10am

Mon Aug 15, 10:10am

Mon Aug 15, 9:10am

Mon Aug 15, 8:10am

Mon Aug 15, 7:10am

Mon Aug 15, 6:10am

Mon Aug 15, 5:10am

Mon Aug 15, 4:10am

Mon Aug 15, 3:10am

Mon Aug 15, 2:10am

Mon Aug 15, 1:10am

Mon Aug 15, 12:10am

Sun Aug 14, 11:10pm

Sun Aug 14, 10:10pm

Sun Aug 14, 9:10pm

Sun Aug 14, 8:10pm

Sun Aug 14, 7:10pm

Sun Aug 14, 6:10pm

Sun Aug 14, 5:10pm

Sun Aug 14, 4:10pm

Sun Aug 14, 3:10pm

Sun Aug 14, 2:10pm

Sun Aug 14, 1:10pm

Sun Aug 14, 12:10pm

Sun Aug 14, 11:10am

Sun Aug 14, 10:10am

Sun Aug 14, 9:10am

Sun Aug 14, 8:10am

Sun Aug 14, 7:10am

Sun Aug 14, 6:10am

Sun Aug 14, 5:10am

Sun Aug 14, 4:10am

Sun Aug 14, 3:10am

Sun Aug 14, 2:10am

Sun Aug 14, 1:10am

Sat Aug 13, 11:10pm

Sat Aug 13, 10:10pm

Sat Aug 13, 9:10pm

Sat Aug 13, 8:10pm

Sat Aug 13, 7:10pm

Sat Aug 13, 6:10pm

Sat Aug 13, 5:10pm

Sat Aug 13, 4:10pm

Sat Aug 13, 3:10pm

Sat Aug 13, 2:10pm

Sat Aug 13, 1:10pm

Sat Aug 13, 12:10pm

Sat Aug 13, 11:10am

Sat Aug 13, 10:10am

Sat Aug 13, 9:10am

Sat Aug 13, 8:10am

Sat Aug 13, 7:10am

Sat Aug 13, 6:10am

Sat Aug 13, 5:10am

Sat Aug 13, 4:10am

Sat Aug 13, 3:10am

Sat Aug 13, 2:10am

Sat Aug 13, 1:10am

Sat Aug 13, 12:10am

Fri Aug 12, 11:10pm

Fri Aug 12, 10:10pm

Fri Aug 12, 9:10pm

Fri Aug 12, 8:10pm

Fri Aug 12, 7:10pm

Fri Aug 12, 6:10pm

Fri Aug 12, 5:10pm

Fri Aug 12, 4:10pm

Fri Aug 12, 3:10pm

Fri Aug 12, 2:10pm

Fri Aug 12, 1:10pm

Fri Aug 12, 12:10pm

Fri Aug 12, 11:10am

Fri Aug 12, 10:10am

Fri Aug 12, 9:10am

Fri Aug 12, 8:10am

Fri Aug 12, 7:10am

Fri Aug 12, 6:10am

Fri Aug 12, 5:10am

Fri Aug 12, 4:10am

Fri Aug 12, 3:10am

Fri Aug 12, 2:10am

Fri Aug 12, 1:10am

Fri Aug 12, 12:10am

Thu Aug 11, 11:10pm

Thu Aug 11, 10:10pm

Thu Aug 11, 9:10pm

Thu Aug 11, 8:10pm

Thu Aug 11, 7:10pm

Thu Aug 11, 6:10pm

Thu Aug 11, 5:10pm

Thu Aug 11, 4:10pm

Thu Aug 11, 3:10pm

Thu Aug 11, 2:10pm

Thu Aug 11, 1:10pm

Thu Aug 11, 12:10pm

Thu Aug 11, 11:10am

Thu Aug 11, 10:10am

Thu Aug 11, 9:10am

Thu Aug 11, 8:10am

Thu Aug 11, 7:10am

Thu Aug 11, 6:10am

Thu Aug 11, 5:10am

Thu Aug 11, 4:10am

Thu Aug 11, 3:10am

Thu Aug 11, 2:10am

Thu Aug 11, 1:10am

Thu Aug 11, 12:10am

Wed Aug 10, 11:10pm

Wed Aug 10, 10:10pm

Wed Aug 10, 9:10pm

Wed Aug 10, 8:10pm

Meta data:

ID: b5433195-7f12-459f-8e56-6e0b5a2a0c92
Link: https://api.weather.gov/products/b5433195-7f12-459f-8e56-6e0b5a2a0c92